Location: Limoges
(45.8354°N, 1.2645°E)
Time: 20:51:35
(UTC+02:00)

Courier 1B Rocket - Pass Details

Date: 23 February 2024
Orbit: 920 x 1201 km, 28.2° (Epoch: 21 April)

Event Time Altitude Azimuth Distance (km) Brightness Sun altitude
Rises 05:46:46 0° 230° (SW) 3,544 - -21.3°
Reaches altitude 10° 05:50:34 10° 208° (SSW) 2,606 - -20.7°
Exits shadow 05:51:12 12° 203° (SSW) 2,497 6.9 -20.6°
Maximum altitude 05:53:53 15° 175° (S) 2,286 6.9 -20.1°
Drops below altitude 10° 05:57:16 10° 143° (SE) 2,649 7.7 -19.5°
Sets 06:01:10 0° 121° (ESE) 3,638 8.9 -18.9°
